• Em Portugal
  • Lista de países
  • Para 7 dias
  • Temperatura da água
  • Mapas de satélite
  • Mapa do tempo
  • Widgets de tempo
  • user-avatar
    Iniciar Sessão

    Previsão horária em Barlewiczki

    Hoje, 16 Outubro, Terça-feira

    Tempo Temperatura Precipitação Vento Pressão Humidade
    00:00 +13°C° 0 mm 4 m/s 760 mmHg 62%
    01:00 +12°C° 0 mm 3 m/s 760 mmHg 63%
    02:00 +12°C° 0 mm 3 m/s 760 mmHg 63%
    03:00 +12°C° 0 mm 3 m/s 760 mmHg 64%
    04:00 +11°C° 0 mm 3 m/s 760 mmHg 64%
    05:00 +11°C° 0 mm 3 m/s 761 mmHg 64%
    06:00 +11°C° 0 mm 3 m/s 761 mmHg 64%
    07:00 +11°C° 0 mm 3 m/s 761 mmHg 63%
    08:00 +13°C° 0 mm 3 m/s 761 mmHg 58%
    09:00 +16°C° 0 mm 3 m/s 761 mmHg 52%
    10:00 +18°C° 0 mm 4 m/s 761 mmHg 47%
    11:00 +19°C° 0 mm 3 m/s 761 mmHg 45%
    12:00 +20°C° 0 mm 3 m/s 761 mmHg 42%
    13:00 +21°C° 0 mm 3 m/s 761 mmHg 40%
    14:00 +20°C° 0 mm 3 m/s 761 mmHg 43%
    15:00 +19°C° 0 mm 2 m/s 761 mmHg 46%
    16:00 +19°C° 0 mm 2 m/s 761 mmHg 49%
    17:00 +18°C° 0 mm 2 m/s 761 mmHg 51%
    18:00 +16°C° 0 mm 2 m/s 761 mmHg 54%
    19:00 +15°C° 0 mm 2 m/s 761 mmHg 56%
    20:00 +15°C° 0 mm 2 m/s 761 mmHg 58%
    21:00 +14°C° 0 mm 2 m/s 761 mmHg 59%
    22:00 +14°C° 0 mm 2 m/s 762 mmHg 60%
    23:00 +14°C° 0 mm 2 m/s 762 mmHg 60%

    Amanhã, 17 Outubro, Quarta-feira

    Tempo Temperatura Precipitação Vento Pressão Humidade
    00:00 +13°C° 0 mm 2 m/s 762 mmHg 61%
    01:00 +13°C° 0 mm 2 m/s 762 mmHg 61%
    02:00 +13°C° 0 mm 2 m/s 762 mmHg 62%
    03:00 +12°C° 0 mm 2 m/s 761 mmHg 63%
    04:00 +12°C° 0 mm 2 m/s 761 mmHg 63%
    05:00 +12°C° 0 mm 2 m/s 761 mmHg 64%
    06:00 +12°C° 0 mm 2 m/s 762 mmHg 64%
    07:00 +12°C° 0 mm 2 m/s 762 mmHg 65%
    08:00 +14°C° 0 mm 2 m/s 762 mmHg 59%
    09:00 +16°C° 0 mm 2 m/s 762 mmHg 54%
    10:00 +18°C° 0 mm 3 m/s 762 mmHg 49%
    11:00 +19°C° 0 mm 2 m/s 762 mmHg 46%
    12:00 +20°C° 0 mm 2 m/s 762 mmHg 44%
    13:00 +21°C° 0 mm 2 m/s 762 mmHg 41%
    14:00 +20°C° 0 mm 2 m/s 762 mmHg 44%
    15:00 +20°C° 0 mm 2 m/s 761 mmHg 47%
    16:00 +20°C° 0 mm 1 m/s 761 mmHg 50%
    17:00 +18°C° 0 mm 2 m/s 761 mmHg 52%
    18:00 +17°C° 0 mm 2 m/s 762 mmHg 54%
    19:00 +15°C° 0 mm 2 m/s 762 mmHg 56%
    20:00 +15°C° 0 mm 2 m/s 762 mmHg 56%
    21:00 +15°C° 0 mm 2 m/s 762 mmHg 57%
    22:00 +14°C° 0 mm 2 m/s 762 mmHg 57%
    23:00 +14°C° 0 mm 2 m/s 762 mmHg 58%

    Depois de amanhã, 18 Outubro, Quinta-feira

    Tempo Temperatura Precipitação Vento Pressão Humidade
    00:00 +13°C° 0 mm 2 m/s 761 mmHg 58%
    01:00 +13°C° 0 mm 2 m/s 761 mmHg 59%
    02:00 +12°C° 0 mm 2 m/s 761 mmHg 60%
    03:00 +12°C° 0 mm 1 m/s 761 mmHg 60%
    04:00 +12°C° 0 mm 1 m/s 761 mmHg 61%
    05:00 +12°C° 0 mm 1 m/s 761 mmHg 62%
    06:00 +12°C° 0 mm 1 m/s 761 mmHg 62%
    07:00 +12°C° 0 mm 1 m/s 761 mmHg 63%
    08:00 +13°C° 0 mm 1 m/s 761 mmHg 59%
    09:00 +15°C° 0 mm 1 m/s 761 mmHg 54%
    10:00 +16°C° 0 mm 1 m/s 761 mmHg 50%
    11:00 +18°C° 0 mm 1 m/s 761 mmHg 47%
    12:00 +18°C° 0 mm 0 m/s 761 mmHg 43%
    13:00 +19°C° 0 mm 0 m/s 761 mmHg 40%
    14:00 +18°C° 0 mm 0 m/s 760 mmHg 43%
    15:00 +17°C° 0 mm 0 m/s 760 mmHg 46%
    16:00 +18°C° 0 mm 1 m/s 760 mmHg 49%
    17:00 +18°C° 0 mm 1 m/s 760 mmHg 51%
    18:00 +16°C° 0 mm 1 m/s 760 mmHg 53%
    19:00 +15°C° 0 mm 1 m/s 760 mmHg 55%
    20:00 +15°C° 0 mm 1 m/s 760 mmHg 56%
    21:00 +15°C° 0 mm 1 m/s 760 mmHg 57%
    22:00 +15°C° 0 mm 1 m/s 761 mmHg 57%
    23:00 +14°C° 0 mm 1 m/s 761 mmHg 59%

    19 Outubro, Sexta-feira

    Tempo Temperatura Precipitação Vento Pressão Humidade
    00:00 +14°C° 0 mm 1 m/s 761 mmHg 61%
    01:00 +14°C° 0 mm 1 m/s 761 mmHg 62%
    02:00 +13°C° 0 mm 2 m/s 761 mmHg 64%
    03:00 +13°C° 0 mm 2 m/s 761 mmHg 66%
    04:00 +13°C° 0 mm 2 m/s 761 mmHg 68%
    05:00 +13°C° 0 mm 2 m/s 761 mmHg 70%
    06:00 +13°C° 0 mm 2 m/s 761 mmHg 71%
    07:00 +13°C° 0 mm 2 m/s 761 mmHg 73%
    08:00 +14°C° 0 mm 2 m/s 761 mmHg 71%
    09:00 +15°C° 0 mm 2 m/s 762 mmHg 68%
    10:00 +16°C° 0 mm 2 m/s 762 mmHg 66%
    11:00 +17°C° 0 mm 3 m/s 762 mmHg 65%
    12:00 +17°C° 0 mm 3 m/s 762 mmHg 65%
    13:00 +18°C° 0 mm 3 m/s 762 mmHg 64%
    14:00 +17°C° 0 mm 3 m/s 762 mmHg 69%
    15:00 +16°C° 0 mm 3 m/s 762 mmHg 74%
    16:00 +14°C° 0 mm 3 m/s 762 mmHg 78%
    17:00 +13°C° 0 mm 3 m/s 762 mmHg 83%
    18:00 +12°C° 0 mm 3 m/s 762 mmHg 87%
    19:00 +11°C° 0 mm 3 m/s 763 mmHg 91%
    20:00 +12°C° 0 mm 2 m/s 763 mmHg 91%
    21:00 +12°C° 0 mm 2 m/s 763 mmHg 91%
    22:00 +10°C° 0 mm 2 m/s 763 mmHg 92%
    23:00 +10°C° 0 mm 2 m/s 763 mmHg 92%

    20 Outubro, Sábado

    Tempo Temperatura Precipitação Vento Pressão Humidade
    00:00 +9°C° 0 mm 2 m/s 763 mmHg 93%
    01:00 +9°C° 0 mm 2 m/s 764 mmHg 94%
    02:00 +8°C° 0 mm 2 m/s 764 mmHg 94%
    03:00 +8°C° 0 mm 2 m/s 764 mmHg 94%
    04:00 +8°C° 0 mm 2 m/s 764 mmHg 94%
    05:00 +7°C° 0 mm 2 m/s 764 mmHg 94%
    06:00 +7°C° 0 mm 3 m/s 764 mmHg 94%
    07:00 +7°C° 0 mm 3 m/s 765 mmHg 94%
    08:00 +9°C° 0 mm 3 m/s 765 mmHg 85%
    09:00 +10°C° 0 mm 3 m/s 765 mmHg 76%
    10:00 +12°C° 0 mm 4 m/s 765 mmHg 67%
    11:00 +12°C° 0 mm 4 m/s 765 mmHg 64%
    12:00 +12°C° 0 mm 5 m/s 765 mmHg 61%
    13:00 +12°C° 0 mm 5 m/s 765 mmHg 59%
    14:00 +12°C° 0 mm 5 m/s 765 mmHg 60%
    15:00 +11°C° 0 mm 4 m/s 765 mmHg 62%
    16:00 +11°C° 0 mm 4 m/s 765 mmHg 64%
    17:00 +11°C° 0 mm 4 m/s 765 mmHg 67%
    18:00 +10°C° 0 mm 4 m/s 765 mmHg 71%
    19:00 +10°C° 0 mm 4 m/s 766 mmHg 74%
    20:00 +10°C° 0 mm 4 m/s 765 mmHg 77%
    21:00 +10°C° 0 mm 4 m/s 765 mmHg 79%
    22:00 +10°C° 0 mm 4 m/s 765 mmHg 82%
    23:00 +10°C° 0 mm 4 m/s 765 mmHg 84%

    21 Outubro, Domingo

    Tempo Temperatura Precipitação Vento Pressão Humidade
    00:00 +10°C° 0 mm 4 m/s 765 mmHg 86%
    01:00 +10°C° 0 mm 4 m/s 765 mmHg 89%
    02:00 +10°C° 0 mm 4 m/s 765 mmHg 89%
    03:00 +10°C° 0 mm 4 m/s 765 mmHg 89%
    04:00 +10°C° 0 mm 4 m/s 765 mmHg 89%
    05:00 +10°C° 0 mm 4 m/s 765 mmHg 89%
    06:00 +10°C° 0 mm 4 m/s 765 mmHg 89%
    07:00 +11°C° 0 mm 4 m/s 765 mmHg 88%
    08:00 +11°C° 0 mm 4 m/s 765 mmHg 83%
    09:00 +12°C° 0 mm 5 m/s 765 mmHg 78%
    10:00 +13°C° 0 mm 5 m/s 765 mmHg 73%
    11:00 +13°C° 0 mm 5 m/s 765 mmHg 68%
    12:00 +14°C° 0 mm 5 m/s 764 mmHg 63%
    13:00 +15°C° 0 mm 5 m/s 764 mmHg 57%
    14:00 +14°C° 0 mm 5 m/s 764 mmHg 58%
    15:00 +14°C° 0 mm 4 m/s 764 mmHg 58%
    16:00 +14°C° 0 mm 4 m/s 763 mmHg 58%
    17:00 +13°C° 0 mm 4 m/s 763 mmHg 61%
    18:00 +13°C° 0 mm 4 m/s 763 mmHg 63%
    19:00 +13°C° 0 mm 5 m/s 763 mmHg 65%
    20:00 +12°C° 0 mm 5 m/s 763 mmHg 67%
    21:00 +12°C° 0 mm 5 m/s 762 mmHg 69%
    22:00 +10°C° 0 mm 5 m/s 762 mmHg 72%
    23:00 +10°C° 0 mm 5 m/s 762 mmHg 72%
    Mostrar mais